Torna al catalogo

YUNHAI 1-03

AttivoScienzaSSO
NORAD 53877·PAYLOAD·🇨🇳 China

Lanciato Sep 20, 2022 da Jiuquan Satellite Launch Center

Loading…

Prossimi Passaggi (prossime 24 ore)

TLE

AggiornatoSource: Space-Track

Epoca: Sep 14, 2026, 13:59 UTC

1 53877U 22115A   26257.58266878  .00000247  00000-0  10715-3 0  9993
2 53877  98.5604 254.6121 0005283 125.9291 234.2384 14.32543634208317

Traccia YUNHAI 1-03 in tempo reale con AllMySat

Download on the App Store